Location: Lussas
(44.6119°N, 4.4726°E)
Time: 05:35:53
(UTC+00:00)

Cosmos 2227 - Pass Details

Date: 26 November 2020
Orbit: 833 x 862 km, 71.0° (Epoch: 18 January)

Event Time Altitude Azimuth Distance (km) Brightness Sun altitude
Exits shadow 04:36:47 31° 213° (SSW) 1,433 5.1 -23.8°
Maximum altitude 04:39:36 79° 296° (WNW) 854 4.0 -23.3°
Drops below altitude 10° 04:45:14 10° 23° (NNE) 2,452 6.8 -22.3°
Sets 04:47:41 0° 25° (NNE) 3,391 7.6 -21.9°
